Location: Eexterzandvoort
(53.0303°N, 6.7884°E)
Time: 07:36:48
(UTC+00:00)

Terra - Pass Details

Date: 19 May 2025
Orbit: 690 x 691 km, 98.0° (Epoch: 22 June)

Event Time Altitude Azimuth Distance (km) Brightness Sun altitude
Exits shadow 20:50:12 - 186° (S) 2,791 4.5 -9.3°
Reaches altitude 10° 20:51:54 10° 192° (SSW) 2,140 3.9 -9.4°
Maximum altitude 20:56:19 40° 263° (W) 1,014 2.9 -9.8°
Drops below altitude 10° 21:00:46 10° 333° (NNW) 2,156 5.9 -10.2°
Sets 21:03:09 0° 341° (NNW) 3,078 6.8 -10.4°
